Time,TemperatureF,DewpointF,PressureIn,WindDirection,WindDirectionDegrees,WindSpeedMPH,WindSpeedGustMPH,Humidity,HourlyPrecipIn,Conditions,Clouds,dailyrainin,SoftwareType,DateUTC
2013-04-07 00:02:00,32.0,32.0,-100.00,NW,320,12.0,13.0,99,-99.99,,,-99.99,,2013-04-07 05:02:00,
2013-04-07 00:34:00,32.0,32.0,-100.00,NNW,330,8.0,10.0,99,-99.99,,,-99.99,,2013-04-07 05:34:00,
2013-04-07 00:43:00,32.0,32.0,-100.00,NNW,330,8.0,10.0,99,-99.99,,,-99.99,,2013-04-07 05:43:00,
2013-04-07 00:52:00,32.0,32.0,-100.00,NNW,330,8.0,10.0,99,-99.99,,,-99.99,,2013-04-07 05:52:00,
2013-04-07 01:02:00,32.0,32.0,-100.00,NNW,330,8.0,10.0,99,-99.99,,,-99.99,,2013-04-07 06:02:00,
2013-04-07 01:32:00,33.0,32.0,-100.00,NW,325,8.0,10.0,99,-99.99,,,-99.99,,2013-04-07 06:32:00,
2013-04-07 01:43:00,33.0,32.0,-100.00,NW,325,8.0,10.0,99,-99.99,,,-99.99,,2013-04-07 06:43:00,
2013-04-07 01:52:00,33.0,32.0,-100.00,NW,325,8.0,10.0,99,-99.99,,,-99.99,,2013-04-07 06:52:00,
2013-04-07 02:02:00,33.0,32.0,-100.00,NW,325,8.0,10.0,99,-99.99,,,-99.99,,2013-04-07 07:02:00,
2013-04-07 02:10:00,32.0,32.0,-100.00,SSW,210,8.0,10.0,99,-99.99,,,-99.99,,2013-04-07 07:10:00,
2013-04-07 02:33:00,32.0,32.0,-100.00,SSW,210,8.0,10.0,99,-99.99,,,-99.99,,2013-04-07 07:33:00,
2013-04-07 02:42:00,32.0,32.0,-100.00,SSW,210,8.0,10.0,99,-99.99,,,-99.99,,2013-04-07 07:42:00,
2013-04-07 02:52:00,32.0,32.0,-100.00,SSW,210,8.0,10.0,99,-99.99,,,-99.99,,2013-04-07 07:52:00,
2013-04-07 03:02:00,32.0,32.0,-100.00,SSW,210,8.0,10.0,99,-99.99,,,-99.99,,2013-04-07 08:02:00,
2013-04-07 03:33:00,32.0,32.0,-100.00,SSW,210,7.0,10.0,99,-99.99,,,-99.99,,2013-04-07 08:33:00,
2013-04-07 03:43:00,32.0,32.0,-100.00,SSW,210,7.0,10.0,99,-99.99,,,-99.99,,2013-04-07 08:43:00,
2013-04-07 03:53:00,32.0,32.0,-100.00,SSW,210,7.0,10.0,99,-99.99,,,-99.99,,2013-04-07 08:53:00,
2013-04-07 04:02:00,32.0,32.0,-100.00,SSW,210,7.0,10.0,99,-99.99,,,-99.99,,2013-04-07 09:02:00,
2013-04-07 04:10:00,32.0,32.0,-100.00,NW,315,5.0,6.0,99,-99.99,,,-99.99,,2013-04-07 09:10:00,
2013-04-07 04:34:00,32.0,32.0,-100.00,NW,315,5.0,6.0,99,-99.99,,,-99.99,,2013-04-07 09:34:00,
2013-04-07 04:44:00,32.0,32.0,-100.00,NW,315,5.0,6.0,99,-99.99,,,-99.99,,2013-04-07 09:44:00,
2013-04-07 04:54:00,32.0,32.0,-100.00,NW,315,5.0,6.0,99,-99.99,,,-99.99,,2013-04-07 09:54:00,
2013-04-07 05:03:00,32.0,32.0,-100.00,NW,315,5.0,6.0,99,-99.99,,,-99.99,,2013-04-07 10:03:00,
2013-04-07 05:34:00,32.0,31.0,-100.00,NW,325,6.0,7.0,99,-99.99,,,-99.99,,2013-04-07 10:34:00,
2013-04-07 05:43:00,32.0,31.0,-100.00,NW,325,6.0,7.0,99,-99.99,,,-99.99,,2013-04-07 10:43:00,
2013-04-07 05:54:00,32.0,31.0,-100.00,NW,325,6.0,7.0,99,-99.99,,,-99.99,,2013-04-07 10:54:00,
2013-04-07 06:03:00,32.0,31.0,-100.00,NW,325,6.0,7.0,99,-99.99,,,-99.99,,2013-04-07 11:03:00,
2013-04-07 06:33:00,31.0,31.0,-100.00,NW,305,4.0,5.0,99,-99.99,,,-99.99,,2013-04-07 11:33:00,
2013-04-07 06:43:00,31.0,31.0,-100.00,NW,305,4.0,5.0,99,-99.99,,,-99.99,,2013-04-07 11:43:00,
2013-04-07 06:53:00,31.0,31.0,-100.00,NW,305,4.0,5.0,99,-99.99,,,-99.99,,2013-04-07 11:53:00,
2013-04-07 07:02:00,31.0,31.0,-100.00,NW,305,4.0,5.0,99,-99.99,,,-99.99,,2013-04-07 12:02:00,
2013-04-07 07:10:00,31.0,31.0,-100.00,WNW,300,3.0,4.0,99,-99.99,,,-99.99,,2013-04-07 12:10:00,
2013-04-07 07:34:00,31.0,31.0,-100.00,WNW,300,3.0,4.0,99,-99.99,,,-99.99,,2013-04-07 12:34:00,
2013-04-07 07:43:00,31.0,31.0,-100.00,WNW,300,3.0,4.0,99,-99.99,,,-99.99,,2013-04-07 12:43:00,
2013-04-07 07:54:00,31.0,31.0,-100.00,WNW,300,3.0,4.0,99,-99.99,,,-99.99,,2013-04-07 12:54:00,
2013-04-07 08:03:00,31.0,31.0,-100.00,WNW,300,3.0,4.0,99,-99.99,,,-99.99,,2013-04-07 13:03:00,
2013-04-07 08:10:00,32.0,32.0,-100.00,WNW,295,3.0,4.0,99,-99.99,,,-99.99,,2013-04-07 13:10:00,
2013-04-07 08:33:00,32.0,32.0,-100.00,WNW,295,3.0,4.0,99,-99.99,,,-99.99,,2013-04-07 13:33:00,
2013-04-07 08:43:00,32.0,32.0,-100.00,WNW,295,3.0,4.0,99,-99.99,,,-99.99,,2013-04-07 13:43:00,
2013-04-07 08:53:00,32.0,32.0,-100.00,WNW,295,3.0,4.0,99,-99.99,,,-99.99,,2013-04-07 13:53:00,
2013-04-07 09:02:00,32.0,32.0,-100.00,WNW,295,3.0,4.0,99,-99.99,,,-99.99,,2013-04-07 14:02:00,
2013-04-07 09:10:00,33.0,32.0,-100.00,North,10,2.0,3.0,99,-99.99,,,-99.99,,2013-04-07 14:10:00,
2013-04-07 09:33:00,33.0,32.0,-100.00,North,10,2.0,3.0,99,-99.99,,,-99.99,,2013-04-07 14:33:00,
2013-04-07 09:44:00,33.0,32.0,-100.00,North,10,2.0,3.0,99,-99.99,,,-99.99,,2013-04-07 14:44:00,
2013-04-07 09:54:00,33.0,32.0,-100.00,North,10,2.0,3.0,99,-99.99,,,-99.99,,2013-04-07 14:54:00,
2013-04-07 10:03:00,33.0,32.0,-100.00,North,10,2.0,3.0,99,-99.99,,,-99.99,,2013-04-07 15:03:00,
2013-04-07 10:10:00,33.0,33.0,-100.00,NNE,30,4.0,4.0,99,-99.99,,,-99.99,,2013-04-07 15:10:00,
2013-04-07 10:35:00,33.0,33.0,-100.00,NNE,30,4.0,4.0,99,-99.99,,,-99.99,,2013-04-07 15:35:00,
2013-04-07 10:45:00,33.0,33.0,-100.00,NNE,30,4.0,4.0,99,-99.99,,,-99.99,,2013-04-07 15:45:00,
2013-04-07 10:55:00,33.0,33.0,-100.00,NNE,30,4.0,4.0,99,-99.99,,,-99.99,,2013-04-07 15:55:00,
2013-04-07 11:10:00,34.0,32.0,-100.00,SE,125,4.0,4.0,91,-99.99,,,-99.99,,2013-04-07 16:10:00,
2013-04-07 11:34:00,34.0,32.0,-100.00,SE,125,4.0,4.0,91,-99.99,,,-99.99,,2013-04-07 16:34:00,
2013-04-07 11:44:00,34.0,32.0,-100.00,SE,125,4.0,4.0,91,-99.99,,,-99.99,,2013-04-07 16:44:00,
2013-04-07 11:54:00,34.0,32.0,-100.00,SE,125,4.0,4.0,91,-99.99,,,-99.99,,2013-04-07 16:54:00,
2013-04-07 12:04:00,34.0,32.0,-100.00,SE,125,4.0,4.0,91,-99.99,,,-99.99,,2013-04-07 17:04:00,
2013-04-07 12:11:00,35.0,31.0,-100.00,SSE,155,4.0,5.0,88,-99.99,,,-99.99,,2013-04-07 17:11:00,
2013-04-07 12:34:00,35.0,31.0,-100.00,SSE,155,4.0,5.0,88,-99.99,,,-99.99,,2013-04-07 17:34:00,
2013-04-07 12:43:00,35.0,31.0,-100.00,SSE,155,4.0,5.0,88,-99.99,,,-99.99,,2013-04-07 17:43:00,
2013-04-07 12:54:00,35.0,31.0,-100.00,SSE,155,4.0,5.0,88,-99.99,,,-99.99,,2013-04-07 17:54:00,
2013-04-07 13:02:00,35.0,31.0,-100.00,SSE,155,4.0,5.0,88,-99.99,,,-99.99,,2013-04-07 18:02:00,
2013-04-07 13:11:00,35.0,32.0,-100.00,ESE,105,6.0,7.0,90,-99.99,,,-99.99,,2013-04-07 18:11:00,
2013-04-07 13:33:00,35.0,32.0,-100.00,ESE,105,6.0,7.0,90,-99.99,,,-99.99,,2013-04-07 18:33:00,
2013-04-07 13:44:00,35.0,32.0,-100.00,ESE,105,6.0,7.0,90,-99.99,,,-99.99,,2013-04-07 18:44:00,
2013-04-07 13:53:00,35.0,32.0,-100.00,ESE,105,6.0,7.0,90,-99.99,,,-99.99,,2013-04-07 18:53:00,
2013-04-07 14:02:00,35.0,32.0,-100.00,ESE,105,6.0,7.0,90,-99.99,,,-99.99,,2013-04-07 19:02:00,
2013-04-07 14:10:00,35.0,33.0,-100.00,SE,125,7.0,8.0,93,-99.99,,,-99.99,,2013-04-07 19:10:00,
2013-04-07 14:33:00,35.0,33.0,-100.00,SE,125,7.0,8.0,93,-99.99,,,-99.99,,2013-04-07 19:33:00,
2013-04-07 14:43:00,35.0,33.0,-100.00,SE,125,7.0,8.0,93,-99.99,,,-99.99,,2013-04-07 19:43:00,
2013-04-07 14:55:00,35.0,33.0,-100.00,SE,125,7.0,8.0,93,-99.99,,,-99.99,,2013-04-07 19:55:00,
2013-04-07 15:03:00,35.0,33.0,-100.00,SE,125,7.0,8.0,93,-99.99,,,-99.99,,2013-04-07 20:03:00,
2013-04-07 15:10:00,33.0,33.0,-100.00,SE,130,4.0,4.0,99,-99.99,,,-99.99,,2013-04-07 20:10:00,
2013-04-07 15:33:00,33.0,33.0,-100.00,SE,130,4.0,4.0,99,-99.99,,,-99.99,,2013-04-07 20:33:00,
2013-04-07 15:44:00,33.0,33.0,-100.00,SE,130,4.0,4.0,99,-99.99,,,-99.99,,2013-04-07 20:44:00,
2013-04-07 15:54:00,33.0,33.0,-100.00,SE,130,4.0,4.0,99,-99.99,,,-99.99,,2013-04-07 20:54:00,
2013-04-07 16:03:00,33.0,33.0,-100.00,SE,130,4.0,4.0,99,-99.99,,,-99.99,,2013-04-07 21:03:00,
2013-04-07 16:35:00,33.0,33.0,-100.00,ESE,110,3.0,4.0,99,-99.99,,,-99.99,,2013-04-07 21:35:00,
2013-04-07 16:45:00,33.0,33.0,-100.00,ESE,110,3.0,4.0,99,-99.99,,,-99.99,,2013-04-07 21:45:00,
2013-04-07 16:55:00,33.0,33.0,-100.00,ESE,110,3.0,4.0,99,-99.99,,,-99.99,,2013-04-07 21:55:00,
2013-04-07 17:03:00,33.0,33.0,-100.00,ESE,110,3.0,4.0,99,-99.99,,,-99.99,,2013-04-07 22:03:00,
2013-04-07 17:11:00,33.0,33.0,-100.00,ENE,70,4.0,5.0,99,-99.99,,,-99.99,,2013-04-07 22:11:00,
2013-04-07 17:34:00,33.0,33.0,-100.00,ENE,70,4.0,5.0,99,-99.99,,,-99.99,,2013-04-07 22:34:00,
2013-04-07 17:44:00,33.0,33.0,-100.00,ENE,70,4.0,5.0,99,-99.99,,,-99.99,,2013-04-07 22:44:00,
2013-04-07 17:53:00,33.0,33.0,-100.00,ENE,70,4.0,5.0,99,-99.99,,,-99.99,,2013-04-07 22:53:00,
2013-04-07 18:03:00,33.0,33.0,-100.00,ENE,70,4.0,5.0,99,-99.99,,,-99.99,,2013-04-07 23:03:00,
2013-04-07 18:10:00,33.0,32.0,-100.00,ENE,65,4.0,5.0,99,-99.99,,,-99.99,,2013-04-07 23:10:00,
2013-04-07 18:33:00,33.0,32.0,-100.00,ENE,65,4.0,5.0,99,-99.99,,,-99.99,,2013-04-07 23:33:00,
2013-04-07 18:43:00,33.0,32.0,-100.00,ENE,65,4.0,5.0,99,-99.99,,,-99.99,,2013-04-07 23:43:00,
2013-04-07 18:53:00,33.0,32.0,-100.00,ENE,65,4.0,5.0,99,-99.99,,,-99.99,,2013-04-07 23:53:00,
2013-04-07 19:02:00,33.0,32.0,-100.00,ENE,65,4.0,5.0,99,-99.99,,,-99.99,,2013-04-08 00:02:00,
2013-04-07 19:10:00,33.0,32.0,-100.00,East,85,3.0,4.0,99,-99.99,,,-99.99,,2013-04-08 00:10:00,
2013-04-07 19:33:00,33.0,32.0,-100.00,East,85,3.0,4.0,99,-99.99,,,-99.99,,2013-04-08 00:33:00,
2013-04-07 19:43:00,33.0,32.0,-100.00,East,85,3.0,4.0,99,-99.99,,,-99.99,,2013-04-08 00:43:00,
2013-04-07 19:53:00,33.0,32.0,-100.00,East,85,3.0,4.0,99,-99.99,,,-99.99,,2013-04-08 00:53:00,
2013-04-07 20:02:00,33.0,32.0,-100.00,East,85,3.0,4.0,99,-99.99,,,-99.99,,2013-04-08 01:02:00,
2013-04-07 20:10:00,33.0,32.0,-100.00,ENE,70,3.0,4.0,99,-99.99,,,-99.99,,2013-04-08 01:10:00,
2013-04-07 20:34:00,33.0,32.0,-100.00,ENE,70,3.0,4.0,99,-99.99,,,-99.99,,2013-04-08 01:34:00,
2013-04-07 20:44:00,33.0,32.0,-100.00,ENE,70,3.0,4.0,99,-99.99,,,-99.99,,2013-04-08 01:44:00,
2013-04-07 20:55:00,33.0,32.0,-100.00,ENE,70,3.0,4.0,99,-99.99,,,-99.99,,2013-04-08 01:55:00,
2013-04-07 21:02:00,33.0,32.0,-100.00,ENE,70,3.0,4.0,99,-99.99,,,-99.99,,2013-04-08 02:02:00,
2013-04-07 21:33:00,33.0,32.0,-100.00,East,90,6.0,6.0,99,-99.99,,,-99.99,,2013-04-08 02:33:00,
2013-04-07 21:48:00,33.0,32.0,-100.00,East,90,6.0,6.0,99,-99.99,,,-99.99,,2013-04-08 02:48:00,
2013-04-07 21:54:00,33.0,32.0,-100.00,East,90,6.0,6.0,99,-99.99,,,-99.99,,2013-04-08 02:54:00,
2013-04-07 22:07:00,33.0,32.0,-100.00,East,90,6.0,6.0,99,-99.99,,,-99.99,,2013-04-08 03:07:00,
2013-04-07 22:10:00,32.0,32.0,-100.00,NE,50,6.0,6.0,99,-99.99,,,-99.99,,2013-04-08 03:10:00,
2013-04-07 22:37:00,32.0,32.0,-100.00,NE,50,6.0,6.0,99,-99.99,,,-99.99,,2013-04-08 03:37:00,
2013-04-07 22:48:00,32.0,32.0,-100.00,NE,50,6.0,6.0,99,-99.99,,,-99.99,,2013-04-08 03:48:00,
2013-04-07 22:57:00,32.0,32.0,-100.00,NE,50,6.0,6.0,99,-99.99,,,-99.99,,2013-04-08 03:57:00,
2013-04-07 23:03:00,32.0,32.0,-100.00,NE,50,6.0,6.0,99,-99.99,,,-99.99,,2013-04-08 04:03:00,
2013-04-07 23:34:00,32.0,32.0,-100.00,NE,45,4.0,5.0,99,-99.99,,,-99.99,,2013-04-08 04:34:00,
2013-04-07 23:44:00,32.0,32.0,-100.00,NE,45,4.0,5.0,99,-99.99,,,-99.99,,2013-04-08 04:44:00,
2013-04-07 23:53:00,32.0,32.0,-100.00,NE,45,4.0,5.0,99,-99.99,,,-99.99,,2013-04-08 04:53:00,